Find Starlink 5908

NORAD ID: 55951 Int'l Des: 2023-037 Owner: SPXS Country: US Constellation: starlink operational
LEOCIRCULAR

現在のビュー

3D地球を読み込み中...

Starlink 5908について

説明を読み込み中...

次回通過

Passes for default location (London). Set your location on the main map for personalized predictions.

高度履歴

Loading altitude history...

軌道要素

1 55951U 23037AP 26151.19786016 .00000476 00000-0 47720-4 0 9994
2 55951 70.0005 76.2441 0002931 267.1136 92.9688 14.98329946176342
Epoch: May 31, 2026 • Age: 9 hours

現在のステータス

高度 578.2 km
速度 7.57 km/s
衛星直下点 38.65°N, 148.82°E
打ち上げ日 Mar 17, 2023
運用期間 3.2 years
タイプ internet

技術仕様

分類 Payload
質量 305.00 kg
乾燥質量 290.00 kg
総質量 305.00 kg
長さ 0.20 m
直径 2.80 m
スパン 9.00 m
形状 Box + pan
製造者 SPXS
バスタイプ Starlink
フェーズステータス In Orbit
所有者/国 SPXS/US

Most Searched